Regional Weather Roundup
Issued by NWS

Home | Current Version | Previous Version | Graphics & Text | Print | Product List | Glossary On
Versions: 1 2 3 4 5 6 7 8 9 10 11 12 13 14 15 16 17 18 19 20 21 22 23 24 25 26 27 28 29 30 31 32 33 34 35 36 37 38 39 40 41 42 43 44 45 46 47 48 49 50
000
ASUS45 KSLC 311210
RWRUT

UTAH REGIONAL WEATHER ROUNDUP
NATIONAL WEATHER SERVICE SALT LAKE CITY UT
600 AM MDT FRI JUL 31 2015

UTZ001>011-023>025-311300-

NORTHERN UTAH

CITY           SKY/WX    TMP DP  RH WIND       PRES   REMARKS
BRIGHAM CITY   CLEAR     59  35  40 NW6       30.23R
HILL AFB       PTCLDY    62  30  30 E22       30.24S
LOGAN          CLEAR     49  39  68 NE5       30.27S
OGDEN          PTCLDY    62  32  32 S6        30.22S
PROVO AIRPORT  PTCLDY    54  34  47 S5        30.26R
SALT LAKE CITY PTCLDY    65  33  30 S7        30.21S
VERNAL         CLEAR     56  33  42 W5        30.28R
WENDOVER       MOCLDY    68  32  26 NW3       30.23R
HEBER CITY     CLEAR     41  32  70 CALM      30.36S
WEST JORDAN    CLEAR     61  32  33 CALM      30.24S

$$

UTZ012>022-026-027-311300-

SOUTHERN/CENTRAL UTAH

CITY           SKY/WX    TMP DP  RH WIND       PRES   REMARKS
BLANDING       PTCLDY    58  53  81 N7        30.43F
BRYCE CANYON   MOCLDY    51  42  71 SW3       30.46R
CEDAR CITY     CLOUDY    64  38  38 SW5       30.28S
DELTA          PTCLDY    61  26  26 NE8       30.23R
HANKSVILLE     CLEAR     64  32  29 N3        30.22S
MILFORD        MOCLDY    60  25  26 SW3       30.23S
MOAB/CYNLANDS  CLEAR     69  48  47 SE5       30.20S
PRICE          CLEAR     59  16  18 NE6       30.30R
ST GEORGE      SUNNY     81  48  32 E6        30.10S
KANAB          MOCLDY    66  48  52 NE3       30.31R

$$

REGIONAL REPORTS     COLORADO/ARIZONA

CITY           SKY/WX    TMP DP  RH WIND       PRES   REMARKS
CRAIG, CO      CLEAR     40  32  73 CALM      30.38R
GRAND JUNCTION CLEAR     58  28  32 CALM      30.25R
RIFLE          CLEAR     57  32  38 CALM      30.32S
MONTROSE       PTCLDY    59  40  49 S7        30.35R
CORTEZ         CLEAR     62  57  83 CALM      30.36R
PAGE, AZ       MOCLDY    77  54  44 S8        30.21S
GRAND CANYON   CLOUDY    62  50  64 CALM      30.38S
KINGMAN        PTCLDY    73  55  53 CALM      30.11S
FLAGSTAFF      PTCLDY    50  50 100 CALM      30.41S

$$

REGIONAL REPORTS    NEVADA/IDAHO/WYOMING

CITY           SKY/WX    TMP DP  RH WIND       PRES   REMARKS
LAS VEGAS, NV  CLOUDY    89  52  28 SW3       29.97R
ELY            MOCLDY    51  22  31 S9        30.37S
ELKO           PTCLDY    56  30  37 CALM      30.29R
POCATELLO, ID  CLEAR     50  37  61 CALM      30.28R
BURLEY         PTCLDY    50  40  68 CALM      30.23R
EVANSTON, WY   PTCLDY    51  24  34 SE5       30.43F
ROCK SPRINGS   MOCLDY    56  19  23 CALM      30.41S
KEMMERER       PTCLDY    46  30  53 NW12      30.45S

$$



USA.gov is the U.S. government's official web portal to all federal, state and local government web resources and services.